Location: DARK SKY Beskydy - Park tmavé oblohy, www.darkskybeskydy.cz
(49.4926°N, 18.5016°E)
Time: 18:20:33
(UTC+02:00)

PCSat - Pass Details

Date: 13 August 2024
Orbit: 781 x 793 km, 67.1° (Epoch: 08 September)

Event Time Altitude Azimuth Distance (km) Brightness Sun altitude
Rises 02:55:01 0° 316° (NW) 3,300 13.0 -20.3°
Reaches altitude 10° 02:57:51 10° 302° (WNW) 2,366 12.0 -20.1°
Enters shadow 03:01:11 23° 266° (W) 1,651 10.9 -19.8°
